TimeEDT,TemperatureF,Dew PointF,Humidity,Sea Level PressureIn,VisibilityMPH,Wind Direction,Wind SpeedMPH,Gust SpeedMPH,PrecipitationIn,Events,Conditions,WindDirDegrees,DateUTC
12:53 AM,39.0,33.1,79,30.13,10.0,NW,3.5,-,N/A,,Clear,320,2013-05-28 04:53:00
1:53 AM,37.0,32.0,82,30.15,10.0,NW,4.6,-,N/A,,Clear,310,2013-05-28 05:53:00
2:53 AM,34.0,32.0,92,30.17,10.0,NNW,4.6,-,N/A,,Clear,330,2013-05-28 06:53:00
3:53 AM,36.0,32.0,86,30.17,10.0,NNW,4.6,-,N/A,,Clear,330,2013-05-28 07:53:00
4:53 AM,33.1,30.9,92,30.18,10.0,NNW,5.8,-,N/A,,Clear,330,2013-05-28 08:53:00
5:53 AM,33.1,30.9,92,30.20,10.0,NNW,4.6,-,N/A,,Clear,330,2013-05-28 09:53:00
6:53 AM,39.0,35.1,86,30.21,10.0,Calm,Calm,-,N/A,,Clear,0,2013-05-28 10:53:00
7:53 AM,45.0,35.1,68,30.23,10.0,Calm,Calm,-,N/A,,Clear,0,2013-05-28 11:53:00
8:53 AM,48.9,35.1,59,30.22,10.0,Calm,Calm,-,N/A,,Clear,0,2013-05-28 12:53:00
9:53 AM,53.1,35.1,50,30.22,10.0,Calm,Calm,-,N/A,,Clear,0,2013-05-28 13:53:00
10:53 AM,54.0,34.0,47,30.22,10.0,Calm,Calm,-,N/A,,Clear,0,2013-05-28 14:53:00
11:53 AM,57.9,33.1,39,30.21,10.0,Variable,4.6,-,N/A,,Clear,0,2013-05-28 15:53:00
12:53 PM,60.1,33.1,36,30.20,10.0,Variable,4.6,-,N/A,,Clear,0,2013-05-28 16:53:00
1:53 PM,63.0,30.9,30,30.19,10.0,West,9.2,-,N/A,,Clear,260,2013-05-28 17:53:00
2:53 PM,64.0,27.0,25,30.18,10.0,WNW,10.4,-,N/A,,Clear,290,2013-05-28 18:53:00
3:53 PM,64.0,30.0,28,30.18,10.0,NE,8.1,-,N/A,,Clear,40,2013-05-28 19:53:00
4:53 PM,64.0,28.9,27,30.17,10.0,Variable,3.5,-,N/A,,Clear,0,2013-05-28 20:53:00
5:53 PM,64.0,30.9,29,30.17,10.0,Variable,3.5,-,N/A,,Clear,0,2013-05-28 21:53:00
6:53 PM,62.1,34.0,35,30.17,10.0,East,3.5,-,N/A,,Clear,100,2013-05-28 22:53:00
7:53 PM,59.0,34.0,39,30.16,10.0,East,4.6,-,N/A,,Clear,80,2013-05-28 23:53:00
8:53 PM,57.9,32.0,37,30.18,10.0,ESE,3.5,-,N/A,,Clear,120,2013-05-29 00:53:00
9:53 PM,57.0,32.0,39,30.19,10.0,ESE,3.5,-,N/A,,Clear,120,2013-05-29 01:53:00
10:53 PM,54.0,33.1,45,30.20,10.0,East,4.6,-,N/A,,Clear,100,2013-05-29 02:53:00
11:53 PM,52.0,33.1,49,30.20,10.0,East,5.8,-,N/A,,Clear,90,2013-05-29 03:53:00